FW1093 Weather Reports


time (UTC)temp
C
wind
direction
speed
KPH
gust
KPH
rain 1hr
cm
rain 24hr
cm
rain mn
cm
humidity
%
barometer
mb
20260903075337 18 79 0.0 0.0 0.00 0.86 0.84 97 1016.2
20260903074330 18 79 0.0 0.0 0.00 0.86 0.84 97 1016.4
20260903073326 18 79 0.0 0.0 0.00 0.86 0.84 97 1016.4
20260903072320 18 79 0.0 0.0 0.00 0.86 0.84 97 1016.4
20260903071317 18 79 0.0 0.0 0.03 0.86 0.84 97 1016.5
20260903070312 18 79 0.0 0.0 0.03 0.86 0.84 97 1016.6
20260903065333 18 79 0.0 0.0 0.05 0.86 0.84 97 1016.6
20260903064331 18 79 0.0 0.0 0.13 0.86 0.84 97 1016.5
20260903063324 18 79 0.0 1.6 0.51 0.86 0.84 96 1016.7
20260903062320 17 79 0.0 0.0 0.84 0.86 0.84 96 1016.2
20260903061329 17 79 0.0 0.0 0.81 0.84 0.81 96 1016.7
20260903060324 17 79 0.0 0.0 0.81 0.84 0.81 96 1016.8
20260903055343 17 79 0.0 0.0 0.76 0.79 0.76 96 1017.6
20260903054314 17 79 0.0 0.0 0.69 0.71 0.69 95 1018.2
20260903053356 18 79 0.0 3.2 0.36 0.38 0.36 95 1018.8
20260903052330 18 293 0.0 1.6 0.00 0.03 0.00 95 1019.0
20260903051324 17 327 0.0 0.0 0.00 0.03 0.00 95 1018.5
20260903050322 17 327 0.0 0.0 0.00 0.03 0.00 95 1018.5
20260903045315 17 327 0.0 0.0 0.00 0.03 0.00 95 1018.5
20260903044336 17 327 0.0 0.0 0.00 0.03 0.00 94 1018.6
20260903043330 17 327 0.0 0.0 0.00 0.03 0.00 94 1018.7
20260903042323 17 327 0.0 0.0 0.00 0.03 0.00 94 1018.8
20260903041318 17 327 0.0 0.0 0.00 0.03 0.00 94 1018.9
20260903040334 17 327 0.0 0.0 0.00 0.03 0.00 94 1019.0
20260903035338 17 327 0.0 0.0 0.00 0.05 0.03 94 1019.2
20260903034311 17 327 0.0 0.0 0.00 0.05 0.03 94 1019.0
20260903033335 17 327 0.0 0.0 0.00 0.05 0.03 94 1018.6
20260903032326 17 327 0.0 0.0 0.00 0.05 0.03 93 1018.7
20260903031348 17 327 0.0 0.0 0.00 0.05 0.03 93 1018.8
20260903030324 17 327 0.0 0.0 0.00 0.05 0.03 93 1019.2
20260903025318 17 327 0.0 0.0 0.00 0.05 0.03 93 1019.2
20260903024313 17 327 0.0 0.0 0.00 0.05 0.03 93 1019.7
20260903023331 17 327 0.0 0.0 0.00 0.05 0.03 93 1019.8
20260903022324 17 327 0.0 0.0 0.00 0.05 0.03 93 1019.9
20260903021345 17 327 0.0 0.0 0.00 0.05 0.03 93 1019.8
20260903020320 17 327 0.0 0.0 0.00 0.05 0.03 93 1020.2
20260903015312 17 327 0.0 0.0 0.00 0.05 0.03 93 1020.1
20260903014332 17 327 0.0 0.0 0.00 0.05 0.03 93 1020.1
20260903013328 17 327 0.0 0.0 0.00 0.05 0.03 93 1020.0
20260903012321 17 327 0.0 0.0 0.00 0.05 0.03 93 1020.2
20260903011314 17 327 0.0 0.0 0.00 0.05 0.03 92 1020.2
20260903010325 17 327 0.0 0.0 0.00 0.05 0.03 92 1020.1
20260903005315 17 327 0.0 0.0 0.00 0.05 0.03 92 1020.1
20260903004335 17 327 0.0 0.0 0.00 0.05 0.03 92 1020.2
20260903003326 18 327 0.0 0.0 0.00 0.05 0.03 92 1020.3
20260903002319 18 327 0.0 0.0 0.00 0.05 0.03 92 1020.1
20260903001312 18 327 0.0 0.0 0.00 0.05 0.03 92 1019.9
20260903000332 18 327 0.0 1.6 0.00 0.05 0.03 91 1019.6
20260902235327 18 328 0.0 1.6 0.00 0.10 0.03 91 1019.5
20260902234320 18 327 0.0 0.0 0.00 0.10 0.03 91 1019.9
20260902233315 18 281 0.0 0.0 0.00 0.10 0.03 91 1020.1
20260902232328 18 281 0.0 0.0 0.00 0.10 0.03 90 1019.9
20260902231319 18 281 0.0 0.0 0.00 0.10 0.03 90 1020.3
20260902230338 18 281 0.0 0.0 0.00 0.10 0.03 90 1020.5
20260902225328 19 281 0.0 0.0 0.00 0.10 0.03 89 1020.5
20260902224321 19 281 0.0 0.0 0.00 0.10 0.03 88 1020.9
20260902223315 20 281 0.0 0.0 0.00 0.10 0.03 87 1021.0
20260902222335 20 281 0.0 0.0 0.00 0.10 0.03 85 1021.1
20260902221328 20 282 0.0 4.8 0.00 0.10 0.03 86 1021.0
20260902220323 20 293 0.0 0.0 0.00 0.10 0.03 87 1021.0
20260902215313 19 293 0.0 0.0 0.00 0.10 0.03 86 1021.0
20260902214333 19 292 0.0 0.0 0.00 0.10 0.03 89 1021.0
20260902213330 20 292 0.0 0.0 0.00 0.10 0.03 89 1020.9
20260902212325 20 292 0.0 0.0 0.00 0.10 0.03 88 1020.9
20260902211320 20 292 0.0 0.0 0.00 0.10 0.03 87 1021.0
20260902210314 20 292 0.0 0.0 0.00 0.10 0.03 89 1020.8
20260902205333 20 292 0.0 0.0 0.00 0.10 0.03 90 1020.6
20260902204351 20 292 0.0 0.0 0.00 0.10 0.03 89 1020.9
20260902203321 20 292 0.0 0.0 0.03 0.10 0.03 90 1021.1
20260902202318 19 292 0.0 0.0 0.03 0.10 0.03 90 1020.7
20260902201329 20 292 0.0 0.0 0.03 0.10 0.03 90 1020.5
20260902200347 19 292 0.0 0.0 0.03 0.10 0.03 91 1020.4
20260902195321 19 292 0.0 0.0 0.03 0.10 0.03 89 1020.7
20260902194315 18 292 0.0 0.0 0.03 0.10 0.03 88 1020.9
20260902193334 18 292 0.0 0.0 0.00 0.08 0.00 87 1021.0
20260902192327 18 292 0.0 0.0 0.00 0.08 0.00 89 1021.3
20260902191337 19 292 0.0 0.0 0.00 0.08 0.00 87 1021.6
20260902190337 19 292 0.0 0.0 0.00 0.08 0.00 85 1021.5
20260902185330 19 292 0.0 0.0 0.00 0.08 0.00 85 1021.3
20260902184322 20 292 0.0 0.0 0.00 0.08 0.00 83 1021.2
20260902183315 20 292 0.0 1.6 0.00 0.08 0.00 81 1021.1
20260902182337 20 292 0.0 0.0 0.00 0.08 0.00 77 1021.1
20260902181330 21 292 0.0 0.0 0.00 0.08 0.00 78 1021.2
20260902180322 21 292 0.0 1.6 0.00 0.08 0.00 79 1021.5
20260902175315 21 292 0.0 1.6 0.00 0.08 0.00 78 1021.5
20260902174327 21 292 0.0 0.0 0.00 0.08 0.00 81 1021.6
20260902173323 21 291 0.0 0.0 0.00 0.08 0.00 81 1021.5
20260902172316 21 291 0.0 0.0 0.00 0.08 0.00 81 1021.5
20260902171340 21 291 0.0 1.6 0.00 0.08 0.00 76 1021.6
20260902170338 21 292 0.0 0.0 0.00 0.08 0.00 78 1021.4
20260902165331 21 292 0.0 1.6 0.00 0.08 0.00 76 1021.3
20260902164325 21 280 0.0 1.6 0.00 0.08 0.00 77 1021.1
20260902163343 21 280 0.0 0.0 0.00 0.08 0.00 80 1021.2
20260902162319 20 288 0.0 0.0 0.00 0.08 0.00 84 1021.3
20260902161334 20 288 0.0 0.0 0.00 0.08 0.00 84 1021.3
20260902160335 20 287 0.0 4.8 0.00 0.08 0.00 83 1021.4
20260902155327 20 283 0.0 1.6 0.00 0.08 0.00 83 1021.4
20260902154346 20 302 0.0 1.6 0.00 0.08 0.00 86 1021.5
20260902153345 20 302 0.0 1.6 0.00 0.08 0.00 85 1021.6
20260902152315 20 300 0.0 1.6 0.00 0.08 0.00 87 1021.9
20260902151334 19 300 0.0 1.6 0.00 0.08 0.00 86 1021.9
20260902150332 19 304 0.0 0.0 0.00 0.08 0.00 88 1022.0
20260902145325 18 305 0.0 1.6 0.00 0.10 0.00 89 1022.0
20260902144320 18 272 0.0 0.0 0.00 0.10 0.00 90 1022.0
20260902143313 18 272 0.0 1.6 0.00 0.10 0.00 88 1022.0
20260902142333 18 274 0.0 0.0 0.00 0.10 0.00 91 1022.0
20260902141329 18 274 0.0 0.0 0.00 0.10 0.00 92 1022.3
20260902140319 18 274 0.0 1.6 0.00 0.10 0.00 91 1022.2
20260902135312 18 274 0.0 1.6 0.00 0.28 0.00 91 1021.9
20260902134336 17 274 0.0 0.0 0.00 0.28 0.00 91 1021.7
20260902133333 17 274 0.0 1.6 0.00 0.28 0.00 93 1021.7
20260902132330 17 271 0.0 1.6 0.00 0.28 0.00 91 1021.6
20260902131325 17 271 0.0 0.0 0.00 0.28 0.00 93 1021.5
20260902130318 17 271 0.0 1.6 0.00 0.28 0.00 94 1021.5
20260902125313 17 271 0.0 0.0 0.00 0.30 0.00 93 1021.3
20260902124329 17 271 0.0 1.6 0.00 0.30 0.00 93 1021.3
20260902123327 17 287 0.0 1.6 0.00 0.30 0.00 94 1021.2
20260902122323 16 322 0.0 1.6 0.00 0.30 0.00 94 1021.3
20260902121313 16 290 0.0 3.2 0.00 0.30 0.00 95 1021.2
20260902120335 16 286 0.0 0.0 0.00 0.30 0.00 96 1021.2
20260902115336 16 286 0.0 0.0 0.00 0.30 0.00 96 1021.4
20260902114329 16 286 0.0 1.6 0.00 0.30 0.00 96 1021.6
20260902113349 16 298 0.0 0.0 0.00 0.30 0.00 96 1021.5
20260902112325 16 298 0.0 1.6 0.00 0.30 0.00 97 1021.6
20260902111319 16 298 0.0 0.0 0.00 0.30 0.00 97 1021.5
20260902110314 16 298 0.0 1.6 0.00 0.30 0.00 97 1021.2
20260902105337 16 298 0.0 1.6 0.00 0.30 0.00 97 1021.3
20260902104330 16 297 0.0 0.0 0.00 0.30 0.00 97 1021.2
20260902103322 16 297 0.0 1.6 0.00 0.30 0.00 97 1021.3
20260902102342 16 297 0.0 0.0 0.00 0.30 0.00 97 1021.1
20260902101316 16 297 0.0 0.0 0.00 0.30 0.00 97 1021.0
20260902100347 16 297 0.0 0.0 0.00 0.30 0.00 97 1021.1
20260902095321 16 297 0.0 0.0 0.00 0.30 0.00 97 1020.9
20260902094358 16 297 0.0 0.0 0.00 0.30 0.00 97 1020.7
20260902093326 16 297 0.0 0.0 0.00 0.30 0.00 97 1020.6
20260902092344 16 297 0.0 0.0 0.00 0.30 0.00 97 1020.6
20260902091318 16 297 0.0 0.0 0.00 0.30 0.00 96 1020.3
20260902090357 16 297 0.0 0.0 0.00 0.30 0.00 96 1020.3
20260902085330 16 297 0.0 0.0 0.00 0.30 0.00 96 1020.3
20260902084324 16 297 0.0 0.0 0.00 0.30 0.00 96 1020.1
20260902083342 16 310 0.0 1.6 0.00 0.30 0.00 96 1020.1
20260902082314 16 285 0.0 1.6 0.00 0.30 0.00 97 1019.9
20260902081333 16 283 0.0 1.6 0.00 0.30 0.00 97 1020.0
20260902080334 16 284 0.0 0.0 0.00 0.30 0.00 97 1019.9